Location: Carnières
(50.1682°N, 3.3474°E)
Time: 11:42:55
(UTC+00:00)

Cosmos 676 Rocket - Pass Details

Date: 23 May 2024
Orbit: 752 x 782 km, 74.0° (Epoch: 14 June)

Event Time Altitude Azimuth Distance (km) Brightness Sun altitude
Exits shadow 00:42:50 30° 172° (S) 1,377 4.8 -18.0°
Maximum altitude 00:45:17 56° 107° (ESE) 928 4.4 -17.9°
Drops below altitude 10° 00:50:30 10° 31° (NNE) 2,348 7.7 -17.6°
Sets 00:52:56 0° 27° (NNE) 3,281 8.9 -17.5°
